Content
SEND FEEDBACK

Daily
Averages
Monthly
Summary
United States of America

GLEN CANYON CITY, UTAH


Home > North America > United States > Utah
Elevation: 4133 feet     Latitude: 37 05N     Longitude: 111 40W

WEATHER
 
SELECT A DAY
Number of Records: 194,777;   Date Range: 1/1/95 - 8/12/14
 
SHARE

PRINT THIS DATA

[ ← Previous Day ]
WEATHER ALMANAC - APRIL 4, 2013
[ Next Day → ]
[ °C ]   °F
Weather ElementAverageHighLow
Temperature63.6 °F75.9 °F (4:53 pm)48.9 °F (5:53 am)
Dewpoint20 °F25 °F (8:53 am)14 °F (4:53 pm)
Humidity20.5 %36 % (5:53 am)10 % (4:53 pm)
Barometer29.96 in30.08 in (7:53 am)29.83 in (11:53 pm)
Wind Speed4.2 mph8.1 mph (12:53 pm)
Weather ElementAverage
Visibility10 mi
Wind DirectionESE (96.5 °)

Weather ElementTotal
Precipitation---
Heating Degree Days2.6 (Base 65)
Growing Degree Days12.4 (Base 50)
Averaged from 23 records on April 4, 2013
WEATHER CONDITIONS BREAKOUT
WIND DIRECTION BREAKOUT
WEATHER BY HOUR - APRIL 4, 2013
[ °C ]   °F
Local TimeTemperatureDewpointHumidityBarometerVisibilityWind DirectionWind SpeedGust SpeedPrecipitationEventsConditions
1:53 AM53.1 °F21.0 °F29 %30.03 in10.0 miWSW (240°)4.6 mphClear
2:53 AM55.0 °F21.0 °F27 %30.02 in10.0 miWest (260°)3.5 mphClear
3:53 AM53.1 °F23.0 °F31 %30.03 in10.0 miCalmClear
4:53 AM50.0 °F21.0 °F32 %30.04 in10.0 miCalmClear
5:53 AM48.9 °F23.0 °F36 %30.05 in10.0 miSSW (210°)3.5 mphClear
6:53 AM51.1 °F24.1 °F35 %30.07 in10.0 miCalmClear
7:53 AM55.0 °F23.0 °F29 %30.08 in10.0 miCalmClear
8:53 AM57.0 °F25.0 °F29 %30.08 in10.0 miCalmClear
9:53 AM61.0 °F24.1 °F24 %30.07 in10.0 miVariable4.6 mphClear
10:53 AM64.0 °F21.9 °F20 %30.05 in10.0 miNorth (360°)3.5 mphClear
11:53 AM66.9 °F21.9 °F18 %30.02 in10.0 miNE (50°)6.9 mphClear
12:53 PM69.1 °F21.9 °F17 %29.99 in10.0 miNorth (10°)8.1 mphClear
1:53 PM73.0 °F19.9 °F14 %29.94 in10.0 miNNE (20°)6.9 mphClear
2:53 PM75.0 °F19.0 °F12 %29.90 in10.0 miNE (40°)8.1 mphClear
3:53 PM75.0 °F16.0 °F11 %29.88 in10.0 miNE (40°)6.9 mphClear
4:53 PM75.9 °F14.0 °F10 %29.87 in10.0 miNE (40°)8.1 mphClear
5:53 PM75.0 °F15.1 °F10 %29.86 in10.0 miNNE (30°)6.9 mphClear
6:53 PM71.1 °F16.0 °F12 %29.85 in10.0 miNorth (10°)4.6 mphClear
7:53 PM66.9 °F18.0 °F15 %29.85 in10.0 miCalmClear
8:53 PM66.9 °F17.1 °F15 %29.86 in10.0 miSW (230°)4.6 mphClear
9:53 PM66.9 °F17.1 °F15 %29.85 in10.0 miSSW (210°)6.9 mphClear
10:53 PM66.9 °F18.0 °F15 %29.84 in10.0 miSW (230°)4.6 mphClear
11:53 PM66.9 °F18.0 °F15 %29.83 in10.0 miWSW (240°)4.6 mphClear
Hourly data recorded from KPGA, located miles away from Glen Canyon City, Utah







STORIES FROM OUR PARTNERS